Location: LDNL
(36.4545°S, 141.6685°E)
Time: 12:26:48
(UTC+10:00)

Tiros 1 despin weight - Pass Details

Date: 12 August 2022
Orbit: 590 x 639 km, 48.2° (Epoch: 23 September)

Event Time Altitude Azimuth Distance (km) Brightness Sun altitude
Rises 04:33:23 0° 235° (SW) 2,956 - -33.9°
Reaches altitude 10° 04:36:10 10° 220° (SW) 2,050 - -33.4°
Maximum altitude 04:39:54 23° 168° (SSE) 1,395 - -32.6°
Exits shadow 04:41:08 20° 145° (SE) 1,481 ? -32.4°
Drops below altitude 10° 04:43:38 10° 115° (ESE) 2,049 ? -31.9°
Sets 04:46:25 0° 100° (E) 2,954 ? -31.3°
